Regional Weather Roundup
Issued by NWS

Home | Current Version | Previous Version | Text Only | Print | Product List | Glossary On
Versions: 1 2 3 4 5 6 7 8 9 10 11 12 13 14 15 16 17 18 19 20 21 22 23 24 25 26 27 28 29 30 31 32 33 34 35 36 37 38 39 40 41 42 43 44 45 46 47 48 49 50
000
ASUS44 KFWD 281503
RWRTX
NORTH TEXAS HOURLY WEATHER ROUNDUP
NATIONAL WEATHER SERVICE FORT WORTH TX
1000 AM CDT MON JUL 28 2014

NOTE: "FAIR" INDICATES FEW OR NO CLOUDS BELOW 12,000 FEET WITH NO
SIGNIFICANT WEATHER AND/OR OBSTRUCTIONS TO VISIBILITY.

TXZ118-119-281600-
DALLAS/FORT WORTH METROPLEX

CITY           SKY/WX    TMP DP  RH WIND       PRES   REMARKS
DFW AIRPORT    PTSUNNY   87  69  54 N12       30.14R HX  91
DALLAS LOVE    PTSUNNY   88  74  63 N9        30.13R HX  96
FTW MEACHAM    MOSUNNY   90  70  51 N9        30.14R HX  95
DAL-EXECUTIVE  SUNNY     92  72  51 N5        30.13R HX  99
FTW-ALLIANCE   PTSUNNY   86  68  54 N9        30.14R
FTW-NAS-JRB    PTSUNNY   90  67  46 N10       30.18R HX  93
FTW-SPINKS     SUNNY     91  70  49 N10       30.15S HX  97
ARLINGTON      SUNNY     89  72  56 N8        30.13R HX  96
GRAND PRAIRIE  SUNNY     88  72  58 N9        30.14  HX  94
ADDISON        PTSUNNY   84  70  61 N10       30.15R
MESQUITE       SUNNY     84  73  70 N6        30.12R HX  91
LANCASTER      MOSUNNY   89  69  50 N8        30.13S HX  93
$$

TXZ091>094-102>105-117-120-121-131>134-281600-
NORTH CENTRAL TEXAS

CITY           SKY/WX    TMP DP  RH WIND       PRES   REMARKS
SHRMAN/DENISON MOSUNNY   83  65  54 NE13      30.19R
GAINESVILLE    PTSUNNY   81  67  62 N9        30.20R
BOWIE          LGT RAIN  76  71  84 N3        30.20R
BRIDGEPORT     MOSUNNY   80  67  64 NE7       30.19R
DECATUR        PTSUNNY   79  66  63 NE8       30.18R
DENTON         PTSUNNY   83  66  56 N14       30.16R
MCKINNEY       MOSUNNY   84  68  58 NE14      30.14R
GREENVILLE     MOSUNNY   86  72  62 N8G16     30.14R HX  92
ROCKWALL       MOSUNNY   85  76  74 N9        30.12S HX  94
TERRELL        MOSUNNY   92  72  51 N6        30.12R HX  99
WAXAHACHIE     PTSUNNY   87  67  51 W5        30.15R HX  90
CLEBURNE       MOSUNNY   88  72  58 N9        30.16S HX  94
GRANBURY       PTSUNNY   89  68  50 NE5       30.15S HX  92
$$

TXZ083>090-098>101-113>116-127>130-139>142-154-155-281600-
WESTERN NORTH TEXAS

CITY           SKY/WX    TMP DP  RH WIND       PRES   REMARKS
WICHITA FALLS  TSTM      74  70  87 N8        30.21R
WF-KICKAPOO    RAIN      74  72  92 NE10      30.22R
VERNON         CLOUDY    75  65  73 NE13G18   30.24R
ABILENE        MOSUNNY   87  69  54 W8        30.19R HX  91
ABILENE-DYESS  SUNNY     86  67  53 W5        30.18R
BRECKENRIDGE   CLOUDY    87  66  49 E7        30.17R
GRAHAM         PTSUNNY   84  70  63 E9        30.16R
MINERAL WELLS  SUNNY     87  71  58 E13       30.15R HX  93
STEPHENVILLE   MOSUNNY   87  67  52 N3        30.19R HX  90
COMANCHE       MOSUNNY   88  64  45 SW6       30.17R
BROWNWOOD      SUNNY     84  68  58 W3        30.17R
COLEMAN        SUNNY     85  65  51 SW6       30.18S
BRADY          SUNNY     84  64  51 S7        30.17R
$$

TXZ143>147-156>162-174-175-281600-
CENTRAL TEXAS

CITY           SKY/WX    TMP DP  RH WIND       PRES   REMARKS
WACO           SUNNY     86  71  60 S5        30.12R HX  91
WACO-TSTC      SUNNY     86  72  62 S3        30.12S HX  92
WACO-MCGREGOR  SUNNY     88  70  55 S6        30.14S HX  92
HILLSBORO      SUNNY     86  70  57 NW6       30.14S HX  91
CORSICANA      PTSUNNY   86  70  58 NW7       30.14R HX  90
MEXIA          SUNNY     84  73  69 SW9       30.12R HX  90
HEARNE         SUNNY    N/A N/A N/A S5        30.14S
CAMERON        SUNNY     84  73  69 SW8       30.14R
TEMPLE         SUNNY     84  66  54 SW12      30.14R
KILLEEN        MOSUNNY   84  70  61 SW9       30.14R
KILLEEN-SKYLRK SUNNY     86  68  54 S7        30.14R
FORT HOOD      SUNNY     88  69  53 S8        30.14R HX  92
GATESVILLE     SUNNY     86  70  58 SW6       30.16R HAZE    HX  90
HAMILTON       SUNNY     87  66  49 W7        30.17R
LAMPASAS       SUNNY     85  69  58 SW6       30.15R
$$

TXZ095>097-106>112-122>126-135>138-148>153-164>167-281600-
EAST TEXAS

CITY           SKY/WX    TMP DP  RH WIND       PRES   REMARKS
PARIS          MOSUNNY   82  70  65 NE8       30.16R
SULPHUR SPRNGS PTSUNNY   83  74  75 N6        30.15R
CLARKSVILLE    PTSUNNY   86  68  55 NE9G16    30.14S
MOUNT PLEASANT PTSUNNY   85  73  66 E8        30.14R HX  92
GILMER         MOSUNNY   84  75  74 N6        30.14S HX  92
MINEOLA        PTSUNNY   86  75  70 W5        30.13R HX  95
TYLER          PTSUNNY   82  73  74 SW5       30.13S
LONGVIEW       PTSUNNY   84  74  71 CALM      30.12R HX  91
MARSHALL       PTSUNNY   83  77  82 CALM      30.13F HX  93
ATHENS         MOSUNNY   82  72  69 CALM      30.13R
JACKSONVILLE   PTSUNNY   83  71  66 NW6       30.17R
HENDERSON      PTSUNNY   81  73  77 W6        30.14S
NACOGDOCHES    SUNNY     84  73  70 W8        30.13R HX  91
LUFKIN         SUNNY     88  72  58 W8        30.13R HX  94
$$

SUPPLEMENTAL OBSERVATIONS (CENTRAL)

CITY           SKY/WX    TMP DP  RH WIND       PRES   REMARKS
$$

SUPPLEMENTAL OBSERVATIONS (WEST)

CITY           SKY/WX    TMP DP  RH WIND       PRES   REMARKS
$$

SUPPLEMENTAL OBSERVATIONS (EAST)

CITY           SKY/WX    TMP DP  RH WIND       PRES   REMARKS
$$

SUPPLEMENTAL OBSERVATIONS ARE A COLLECTION OF AUTOMATED INSTRUMENTS
THAT ARE MAINTAINED BY A VARIETY OF FEDERAL AND STATE AGENCIES.
CERTAIN ELEMENTS...SUCH AS HUMIDITY VALUES AND SUSTAINED WIND
SPEEDS...MAY BE APPROXIMATED.



USA.gov is the U.S. government's official web portal to all federal, state and local government web resources and services.